Weather History for Los Angeles Downtown, CA

Change the Weather History Date:

Sunday, October 28, 2012

  Actual Average Record
Temperature  
Mean Temperature 74 °F 67 °F  
Max Temperature 89 °F 77 °F 94 °F (1931)
Min Temperature 58 °F 56 °F 45 °F (1903)
Degree Days  
Heating Degree Days 0 1  
Month to date heating degree days 1 11  
Since 1 July heating degree days 1 13  
Cooling Degree Days 9 3  
Month to date cooling degree days 171 122  
Year to date cooling degree days 1250 1200  
Growing Degree Days 22 (Base 50)    
Moisture  
Dew Point 38 °F    
Average Humidity 37    
Maximum Humidity 63    
Minimum Humidity 10    
Precipitation  
Precipitation 0.00 in 0.03 in 0.56 in (1942)
Month to date precipitation 0.02 0.57  
Year to date precipitation 4.96 11.47  
Since 1 July precipitation 0.03 0.86  
Sea Level Pressure  
Sea Level Pressure 29.93 in    
Wind  
Wind Speed 1 mph (SE)    
Max Wind Speed 7 mph    
Max Gust Speed 10 mph    
Visibility 10 miles    
Events      
T = Trace of Precipitation, MM = Missing Value Source: NWS Daily Summary

Daily Weather History Graph

Daily Weather History Graph

Search for Another Location

Airport:

Trip Planner

Search our weather history database for the weather conditions in past years. The results will help you decide how hot, cold, wet, or windy it might be!

Date:

Astronomy

Oct. 28, 2012 Rise Set
Actual Time 7:09 AM PDT 6:03 PM PDT
Civil Twilight 6:43 AM PDT 6:29 PM PDT
Nautical Twilight 6:14 AM PDT 6:58 PM PDT
Astronomical Twilight 5:45 AM PDT 7:27 PM PDT
Moon 5:24 PM PDT 6:08 AM PDT
Length of Visible Light 11h 45m
Length of Day
10h 54m
Waxing Gibbous, 99% of the Moon is Illuminated
Oct 28
Waxing Gibbous
Oct 29
Full
Nov 6
Last Quarter
Nov 13
New
Nov 20
First Quarter

Hourly Weather History & Observations

Time (PDT) Temp. Dew Point Humidity Pressure Visibility Wind Dir Wind Speed Gust Speed Precip Events Conditions
12:47 AM 64.0 °F 39.9 °F 41% 29.90 in 10.0 mi Calm Calm - N/A   Clear
1:47 AM 63.0 °F 39.9 °F 43% 29.90 in 10.0 mi Calm Calm - N/A   Clear
2:47 AM 64.0 °F 39.0 °F 40% 29.90 in 10.0 mi Calm Calm - N/A   Clear
3:47 AM 62.1 °F 41.0 °F 46% 29.89 in 10.0 mi Calm Calm - N/A   Clear
4:47 AM 60.1 °F 42.1 °F 51% 29.89 in 10.0 mi Calm Calm - N/A   Clear
5:47 AM 59.0 °F 43.0 °F 55% 29.90 in 10.0 mi Calm Calm - N/A   Clear
6:47 AM 57.9 °F 41.0 °F 53% 29.90 in 10.0 mi Calm Calm - N/A   Clear
7:47 AM 60.1 °F 36.0 °F 41% 29.92 in 10.0 mi Calm Calm - N/A   Clear
8:47 AM 69.1 °F 32.0 °F 25% 29.94 in 10.0 mi Calm Calm - N/A   Clear
9:47 AM 75.9 °F 30.9 °F 19% 29.94 in 10.0 mi Calm Calm - N/A   Clear
10:47 AM 82.0 °F 23.0 °F 11% 29.93 in 10.0 mi East 3.5 mph - N/A   Clear
11:47 AM 84.9 °F 24.1 °F 11% 29.92 in 10.0 mi Calm Calm - N/A   Clear
12:47 PM 87.1 °F 25.0 °F 10% 29.91 in 10.0 mi SSE 3.5 mph - N/A   Clear
1:47 PM 86.0 °F 42.1 °F 21% 29.90 in 10.0 mi Variable 3.5 mph - N/A   Clear
2:47 PM 82.0 °F 45.0 °F 27% 29.89 in 10.0 mi Calm Calm - N/A   Clear
3:47 PM 80.1 °F 37.9 °F 22% 29.90 in 10.0 mi Calm Calm - N/A   Clear
4:47 PM 78.1 °F 37.0 °F 23% 29.90 in 10.0 mi Variable 5.8 mph - N/A   Clear
5:47 PM 73.9 °F 41.0 °F 30% 29.92 in 10.0 mi Calm Calm - N/A   Clear
6:47 PM 71.1 °F 36.0 °F 28% 29.94 in 10.0 mi Calm Calm - N/A   Clear
7:47 PM 69.1 °F 39.0 °F 33% 29.95 in 10.0 mi Calm Calm - N/A   Clear
8:47 PM 66.9 °F 42.1 °F 40% 29.96 in 10.0 mi Calm Calm - N/A   Clear
9:47 PM 66.0 °F 43.0 °F 43% 29.99 in 10.0 mi Calm Calm - N/A   Clear
10:47 PM 66.0 °F 42.1 °F 42% 30.01 in 10.0 mi Calm Calm - N/A   Clear
11:47 PM 64.9 °F 52.0 °F 63% 30.02 in 10.0 mi Calm Calm - N/A   Clear